Previsão horária em Ablezki

Hoje, 18 Maio, Terça-feira

Tempo Temperatura Precipitação Vento Pressão Humidade
00:00 +17°C° 0.2 mm 4 m/s 732 mmHg 90%
01:00 +17°C° 0.2 mm 3 m/s 732 mmHg 92%
02:00 +17°C° 0.2 mm 3 m/s 732 mmHg 94%
03:00 +17°C° 0.2 mm 3 m/s 733 mmHg 95%
04:00 +17°C° 0.2 mm 4 m/s 733 mmHg 96%
05:00 +17°C° 0.2 mm 4 m/s 733 mmHg 96%
06:00 +18°C° 0 mm 4 m/s 733 mmHg 91%
07:00 +19°C° 0 mm 5 m/s 733 mmHg 87%
08:00 +20°C° 0 mm 5 m/s 734 mmHg 82%
09:00 +21°C° 0 mm 5 m/s 734 mmHg 76%
10:00 +22°C° 0 mm 5 m/s 734 mmHg 71%
11:00 +23°C° 0 mm 4 m/s 734 mmHg 65%
12:00 +21°C° 1.3 mm 4 m/s 734 mmHg 74%
13:00 +19°C° 1.3 mm 3 m/s 733 mmHg 82%
14:00 +18°C° 1.3 mm 3 m/s 733 mmHg 90%
15:00 +19°C° 0.2 mm 3 m/s 733 mmHg 87%
16:00 +20°C° 0.2 mm 3 m/s 733 mmHg 84%
17:00 +20°C° 0.2 mm 2 m/s 732 mmHg 81%
18:00 +19°C° 2.2 mm 3 m/s 732 mmHg 85%
19:00 +18°C° 2.2 mm 4 m/s 732 mmHg 89%
20:00 +17°C° 2.2 mm 4 m/s 731 mmHg 93%
21:00 +15°C° 0.6 mm 4 m/s 732 mmHg 94%
22:00 +15°C° 0.6 mm 4 m/s 732 mmHg 94%
23:00 +14°C° 0.6 mm 4 m/s 732 mmHg 95%

Amanhã, 19 Maio, Quarta-feira

Tempo Temperatura Precipitação Vento Pressão Humidade
00:00 +14°C° 0 mm 4 m/s 732 mmHg 96%
01:00 +13°C° 0 mm 3 m/s 732 mmHg 96%
02:00 +13°C° 0 mm 3 m/s 732 mmHg 97%
03:00 +13°C° 0 mm 3 m/s 732 mmHg 97%
04:00 +13°C° 0 mm 3 m/s 732 mmHg 97%
05:00 +13°C° 0 mm 3 m/s 732 mmHg 97%
06:00 +14°C° 0 mm 4 m/s 733 mmHg 93%
07:00 +15°C° 0 mm 4 m/s 733 mmHg 88%
08:00 +17°C° 0 mm 4 m/s 733 mmHg 84%
09:00 +17°C° 0.2 mm 4 m/s 733 mmHg 81%
10:00 +18°C° 0.2 mm 4 m/s 733 mmHg 78%
11:00 +19°C° 0.2 mm 5 m/s 734 mmHg 75%
12:00 +19°C° 0.1 mm 4 m/s 734 mmHg 70%
13:00 +20°C° 0.1 mm 4 m/s 734 mmHg 66%
14:00 +21°C° 0.1 mm 4 m/s 734 mmHg 61%
15:00 +20°C° 0.3 mm 3 m/s 734 mmHg 67%
16:00 +20°C° 0.3 mm 3 m/s 734 mmHg 72%
17:00 +19°C° 0.3 mm 3 m/s 734 mmHg 77%
18:00 +18°C° 0.8 mm 3 m/s 734 mmHg 82%
19:00 +17°C° 0.8 mm 2 m/s 734 mmHg 87%
20:00 +15°C° 0.8 mm 2 m/s 734 mmHg 92%
21:00 +15°C° 0.6 mm 1 m/s 734 mmHg 93%
22:00 +15°C° 0.6 mm 1 m/s 733 mmHg 95%
23:00 +14°C° 0.6 mm 0 m/s 733 mmHg 96%

Depois de amanhã, 20 Maio, Quinta-feira

Tempo Temperatura Precipitação Vento Pressão Humidade
00:00 +15°C° 0.5 mm 1 m/s 733 mmHg 96%
01:00 +14°C° 0.5 mm 2 m/s 733 mmHg 97%
02:00 +14°C° 0.5 mm 2 m/s 732 mmHg 97%
03:00 +14°C° 0.3 mm 2 m/s 732 mmHg 97%
04:00 +14°C° 0.3 mm 2 m/s 732 mmHg 97%
05:00 +13°C° 0.3 mm 3 m/s 731 mmHg 97%
06:00 +13°C° 0.2 mm 3 m/s 731 mmHg 96%
07:00 +13°C° 0.2 mm 3 m/s 731 mmHg 95%
08:00 +13°C° 0.2 mm 3 m/s 731 mmHg 93%
09:00 +13°C° 1.2 mm 3 m/s 731 mmHg 94%
10:00 +13°C° 1.2 mm 4 m/s 731 mmHg 95%
11:00 +12°C° 1.2 mm 4 m/s 731 mmHg 96%
12:00 +12°C° 0.8 mm 5 m/s 731 mmHg 95%
13:00 +12°C° 0.8 mm 5 m/s 731 mmHg 95%
14:00 +10°C° 0.8 mm 6 m/s 731 mmHg 94%
15:00 +10°C° 0.1 mm 6 m/s 731 mmHg 93%
16:00 +10°C° 0.1 mm 6 m/s 731 mmHg 92%
17:00 +9°C° 0.1 mm 6 m/s 732 mmHg 92%
18:00 +8°C° 0 mm 6 m/s 732 mmHg 92%
19:00 +8°C° 0 mm 5 m/s 732 mmHg 93%
20:00 +7°C° 0 mm 5 m/s 732 mmHg 93%
21:00 +7°C° 0.1 mm 5 m/s 732 mmHg 94%
22:00 +7°C° 0.1 mm 5 m/s 732 mmHg 94%
23:00 +7°C° 0.1 mm 5 m/s 732 mmHg 95%

21 Maio, Sexta-feira

Tempo Temperatura Precipitação Vento Pressão Humidade
00:00 +7°C° 0.5 mm 5 m/s 732 mmHg 95%
01:00 +7°C° 0.5 mm 6 m/s 733 mmHg 95%
02:00 +7°C° 0.5 mm 6 m/s 733 mmHg 95%
03:00 +6°C° 0.3 mm 7 m/s 733 mmHg 94%
04:00 +6°C° 0.3 mm 7 m/s 734 mmHg 93%
05:00 +6°C° 0.3 mm 7 m/s 734 mmHg 93%
06:00 +6°C° 0.1 mm 7 m/s 735 mmHg 91%
07:00 +6°C° 0.1 mm 7 m/s 736 mmHg 90%
08:00 +6°C° 0.1 mm 7 m/s 737 mmHg 89%
09:00 +9°C° 0 mm 7 m/s 738 mmHg 80%
10:00 +11°C° 0 mm 7 m/s 738 mmHg 70%
11:00 +12°C° 0 mm 7 m/s 739 mmHg 61%
12:00 +14°C° 0 mm 7 m/s 740 mmHg 58%
13:00 +15°C° 0 mm 6 m/s 740 mmHg 56%
14:00 +15°C° 0 mm 6 m/s 740 mmHg 54%
15:00 +15°C° 0 mm 5 m/s 741 mmHg 58%
16:00 +15°C° 0 mm 4 m/s 741 mmHg 62%
17:00 +14°C° 0 mm 4 m/s 742 mmHg 66%
18:00 +13°C° 0 mm 3 m/s 742 mmHg 72%
19:00 +11°C° 0 mm 3 m/s 742 mmHg 77%
20:00 +10°C° 0 mm 2 m/s 742 mmHg 82%
21:00 +9°C° 0 mm 2 m/s 743 mmHg 85%
22:00 +8°C° 0 mm 2 m/s 743 mmHg 87%
23:00 +8°C° 0 mm 2 m/s 743 mmHg 89%

22 Maio, Sábado

Tempo Temperatura Precipitação Vento Pressão Humidade
00:00 +7°C° 0 mm 2 m/s 743 mmHg 90%
01:00 +7°C° 0 mm 2 m/s 744 mmHg 90%
02:00 +6°C° 0 mm 2 m/s 744 mmHg 91%
03:00 +8°C° 0 mm 1 m/s 744 mmHg 89%
04:00 +8°C° 0 mm 1 m/s 744 mmHg 87%
05:00 +8°C° 0 mm 1 m/s 744 mmHg 85%
06:00 +10°C° 0 mm 1 m/s 744 mmHg 78%
07:00 +12°C° 0 mm 1 m/s 744 mmHg 71%
08:00 +14°C° 0 mm 1 m/s 744 mmHg 63%
09:00 +14°C° 0 mm 0 m/s 744 mmHg 59%
10:00 +15°C° 0 mm 0 m/s 744 mmHg 54%
11:00 +17°C° 0 mm 0 m/s 744 mmHg 49%
12:00 +17°C° 0 mm 0 m/s 744 mmHg 48%
13:00 +20°C° 0 mm 1 m/s 744 mmHg 47%
14:00 +20°C° 0 mm 1 m/s 743 mmHg 46%
15:00 +20°C° 0 mm 1 m/s 743 mmHg 49%
16:00 +20°C° 0 mm 1 m/s 743 mmHg 52%
17:00 +20°C° 0 mm 1 m/s 743 mmHg 56%
18:00 +17°C° 0 mm 2 m/s 743 mmHg 64%
19:00 +15°C° 0 mm 2 m/s 743 mmHg 71%
20:00 +13°C° 0 mm 2 m/s 743 mmHg 79%
21:00 +12°C° 0 mm 2 m/s 743 mmHg 84%
22:00 +10°C° 0 mm 2 m/s 743 mmHg 88%
23:00 +9°C° 0 mm 2 m/s 743 mmHg 93%

23 Maio, Domingo

Tempo Temperatura Precipitação Vento Pressão Humidade
00:00 +9°C° 0 mm 2 m/s 742 mmHg 93%
01:00 +9°C° 0 mm 2 m/s 742 mmHg 92%
02:00 +9°C° 0 mm 1 m/s 742 mmHg 92%
03:00 +9°C° 0 mm 1 m/s 742 mmHg 91%
04:00 +10°C° 0 mm 1 m/s 741 mmHg 91%
05:00 +9°C° 0 mm 2 m/s 741 mmHg 90%
06:00 +11°C° 0 mm 1 m/s 741 mmHg 87%
07:00 +13°C° 0 mm 1 m/s 740 mmHg 84%
08:00 +14°C° 0 mm 1 m/s 740 mmHg 80%
09:00 +15°C° 0 mm 1 m/s 740 mmHg 79%
10:00 +16°C° 0 mm 1 m/s 739 mmHg 77%
11:00 +17°C° 0 mm 2 m/s 739 mmHg 75%
12:00 +17°C° 0.1 mm 2 m/s 739 mmHg 72%
13:00 +18°C° 0.1 mm 3 m/s 738 mmHg 70%
14:00 +19°C° 0.1 mm 4 m/s 738 mmHg 67%
15:00 +17°C° 0.2 mm 4 m/s 738 mmHg 73%
16:00 +15°C° 0.2 mm 5 m/s 738 mmHg 79%
17:00 +14°C° 0.2 mm 5 m/s 738 mmHg 85%
18:00 +13°C° 0 mm 5 m/s 738 mmHg 88%
19:00 +12°C° 0 mm 5 m/s 739 mmHg 90%
20:00 +10°C° 0 mm 5 m/s 739 mmHg 92%
21:00 +11°C° 0 mm 4 m/s 740 mmHg 93%
22:00 +10°C° 0 mm 4 m/s 740 mmHg 94%
23:00 +10°C° 0 mm 4 m/s 740 mmHg 95%
Mostrar mais

Necessitamos do seu Consentimento

A Meteoprog e os seus Fornecedores de Serviços podem armazenar e aceder a dados pessoais como cookies, identificadores do dispositivo ou outras tecnologias semelhantes existentes no seu dispositivo e processar estes dados para personalizar conteúdos e anúncios, assim como funcionalidades nas redes sociais e análise de tráfego.

  • Armazenar e/ou aceder a informações no seu dispositivo

    Os cookies, identificadores do dispositivo ou outras informações podem ser armazenados ou acedidos no seu dispositivo, para os fins acima indicados.

  • Anúncios e conteúdos personalizados, medição de anúncios e conteúdos, dados sobre o público-alvo e desenvolvimento de produtos

    Os anúncios e os conteúdos podem ser personalizados com base num perfil. Podem ser adicionados dados adicionais para uma maior personalização dos anúncios e dos conteúdos. A eficácia dos anúncios e dos conteúdos pode ser medida. Podem ser obtidas informações sobre o público que visualizou os anúncios e os conteúdos. Estes dados podem ser usados para desenvolver ou melhorar sistemas, softwares ou a experiência do utilizador.

Ao clicar em "Eu concordo”, permitirá o uso de cookies, identificadores do dispositivo e web beacons mencionados ou outras tecnologias semelhantes. As configurações do navegador do seu dispositivo podem ser alteradas.

Para certos fins, podem ser invocados interesses legítimos ao invés de consentimento. Pode ler mais informação sobre este assunto na nossa Política de Privacidade e Cookies.